DW6400 Weather Reports


time (UTC)temp
C
wind
direction
speed
KPH
gust
KPH
rain 1hr
cm
rain 24hr
cm
rain mn
cm
humidity
%
barometer
mb
20180814212936 26 320 0.0 0.0 0.00 0.00 0.00 42 1005.8
20180814211435 27 320 0.0 0.0 0.00 0.00 0.00 39 1005.5
20180814205934 27 320 0.0 0.0 0.00 0.00 0.00 40 1005.4
20180814204434 25 318 0.0 0.0 0.00 0.00 0.00 42 1005.9
20180814202930 25 245 0.0 0.0 0.00 0.00 0.00 43 1006.1
20180814201430 26 245 0.0 1.6 0.00 0.00 0.00 41 1006.3
20180814195929 26 252 0.0 0.0 0.00 0.00 0.00 41 1006.4
20180814194428 27 270 0.0 0.0 0.00 0.00 0.00 38 1006.3
20180814192929 27 338 0.0 0.0 0.00 0.00 0.00 36 1006.6
20180814191426 27 333 0.0 0.0 0.00 0.00 0.00 40 1006.8
20180814185927 27 333 0.0 0.0 0.00 0.00 0.00 41 1007.0
20180814184424 27 333 0.0 0.0 0.00 0.00 0.00 42 1007.0
20180814182921 26 333 0.0 0.0 0.00 0.00 0.00 43 1007.2
20180814181411 26 333 0.0 0.0 0.00 0.00 0.00 47 1007.7
20180814175907 25 333 0.0 0.0 0.00 0.00 0.00 50 1007.9
20180814174405 24 335 0.0 0.0 0.00 0.00 0.00 49 1008.2
20180814172902 23 335 0.0 0.0 0.00 0.00 0.00 51 1008.4
20180814171401 23 335 0.0 0.0 0.00 0.00 0.00 53 1008.5
20180814165854 22 335 0.0 0.0 0.00 0.00 0.00 58 1008.9
20180814164347 21 335 0.0 0.0 0.00 0.00 0.00 60 1009.0
20180814162843 20 335 0.0 0.0 0.00 0.00 0.00 61 1009.1
20180814161338 19 335 0.0 0.0 0.00 0.00 0.00 64 1009.0
20180814155834 18 335 0.0 0.0 0.00 0.00 0.00 65 1009.0
20180814154329 18 335 0.0 0.0 0.00 0.00 0.00 69 1009.1
20180814152825 17 84 0.0 0.0 0.00 0.00 0.00 73 1009.1
20180814151322 16 84 0.0 0.0 0.00 0.00 0.00 75 1008.9
20180814145819 15 86 0.0 0.0 0.00 0.00 0.00 80 1008.9
20180814144320 14 87 0.0 0.0 0.00 0.00 0.00 83 1008.9
20180814142815 13 87 0.0 1.6 0.00 0.00 0.00 86 1008.9
20180814141314 12 87 0.0 0.0 0.00 0.00 0.00 88 1008.9
20180814135815 11 87 0.0 0.0 0.00 0.00 0.00 91 1008.5
20180814134310 11 87 0.0 0.0 0.00 0.00 0.00 92 1008.5
20180814132807 10 87 0.0 0.0 0.00 0.00 0.00 90 1008.6
20180814131303 10 87 0.0 0.0 0.00 0.00 0.00 89 1008.3
20180814125801 10 87 0.0 0.0 0.00 0.00 0.00 89 1008.3
20180814124258 10 94 0.0 0.0 0.00 0.00 0.00 88 1008.1
20180814122756 10 94 0.0 0.0 0.00 0.00 0.00 87 1007.8
20180814121255 10 94 0.0 0.0 0.00 0.00 0.00 86 1007.6
20180814115757 10 94 0.0 0.0 0.00 0.00 0.00 85 1007.3
20180814114253 10 94 0.0 0.0 0.00 0.00 0.00 84 1007.2
20180814112750 11 94 0.0 0.0 0.00 0.00 0.00 85 1007.1
20180814111248 11 94 0.0 0.0 0.00 0.00 0.00 84 1007.1
20180814105747 11 94 0.0 0.0 0.00 0.00 0.00 84 1007.1
20180814104246 11 94 0.0 0.0 0.00 0.00 0.00 83 1007.0
20180814102744 11 94 0.0 0.0 0.00 0.00 0.00 83 1006.9
20180814101239 12 94 0.0 0.0 0.00 0.00 0.00 82 1006.8
20180814095739 12 94 0.0 0.0 0.00 0.00 0.00 84 1006.9
20180814094234 12 94 0.0 0.0 0.00 0.00 0.00 83 1006.9
20180814092733 13 94 0.0 0.0 0.00 0.00 0.00 83 1006.7
20180814091234 13 94 0.0 0.0 0.00 0.00 0.00 82 1006.8
20180814085729 13 94 0.0 0.0 0.00 0.00 0.00 80 1006.7
20180814084231 14 94 0.0 0.0 0.00 0.00 0.00 78 1006.8
20180814082728 15 94 0.0 0.0 0.00 0.00 0.00 78 1006.9
20180814081227 15 94 0.0 0.0 0.00 0.00 0.00 76 1006.9
20180814075721 16 94 0.0 0.0 0.00 0.00 0.00 75 1006.9
20180814074221 16 94 0.0 0.0 0.00 0.00 0.00 75 1006.9
20180814072720 16 94 0.0 0.0 0.00 0.00 0.00 75 1007.0
20180814071217 16 94 0.0 0.0 0.00 0.00 0.00 75 1007.1
20180814065717 16 9 0.0 0.0 0.00 0.00 0.00 74 1007.3
20180814064212 15 355 0.0 0.0 0.00 0.00 0.00 73 1007.5
20180814062713 15 355 0.0 0.0 0.00 0.00 0.00 71 1007.6
20180814061207 15 331 0.0 0.0 0.00 0.00 0.00 68 1007.8
20180814055704 14 331 0.0 0.0 0.00 0.00 0.00 56 1008.0
20180814054206 14 331 0.0 0.0 0.00 0.00 0.00 51 1008.1
20180814052701 15 331 0.0 0.0 0.00 0.00 0.00 50 1008.0
20180814051200 15 331 0.0 0.0 0.00 0.00 0.00 49 1007.8
20180814045700 16 331 0.0 0.0 0.00 0.00 0.00 49 1007.7
20180814044159 16 331 0.0 0.0 0.00 0.00 0.00 46 1007.7
20180814042658 16 331 0.0 0.0 0.00 0.00 0.00 47 1007.7
20180814041202 16 331 0.0 0.0 0.00 0.00 0.00 43 1007.6
20180814035703 16 331 0.0 0.0 0.00 0.00 0.00 42 1007.5
20180814034204 17 331 0.0 0.0 0.00 0.00 0.00 41 1007.5
20180814032656 18 331 0.0 0.0 0.00 0.00 0.00 39 1007.1
20180814031157 18 331 0.0 0.0 0.00 0.00 0.00 38 1007.0
20180814025653 19 331 0.0 0.0 0.00 0.00 0.00 37 1006.7
20180814024149 20 331 0.0 0.0 0.00 0.00 0.00 36 1006.5
20180814022648 21 331 0.0 0.0 0.00 0.00 0.00 33 1006.3
20180814021152 22 331 0.0 0.0 0.00 0.00 0.00 30 1006.0
20180814015648 22 331 0.0 0.0 0.00 0.00 0.00 29 1005.9
20180814014150 23 331 0.0 0.0 0.00 0.00 0.00 27 1005.7
20180814012649 24 331 0.0 0.0 0.00 0.00 0.00 26 1005.7
20180814011146 25 331 0.0 0.0 0.00 0.00 0.00 24 1005.4
20180814005647 26 331 0.0 0.0 0.00 0.00 0.00 23 1005.3
20180814004145 26 331 0.0 0.0 0.00 0.00 0.00 22 1005.1
20180814002651 27 331 0.0 0.0 0.00 0.00 0.00 21 1005.1
20180814001142 28 331 0.0 0.0 0.00 0.00 0.00 20 1005.0
20180813235708 29 331 0.0 0.0 0.00 0.00 0.00 21 1004.9
20180813234144 29 331 0.0 0.0 0.00 0.00 0.00 21 1004.8
20180813232642 29 331 0.0 0.0 0.00 0.00 0.00 21 1004.7
20180813231140 30 314 0.0 0.0 0.00 0.00 0.00 20 1004.7
20180813225640 30 337 0.0 0.0 0.00 0.00 0.00 19 1004.7
20180813224139 30 328 0.0 0.0 0.00 0.00 0.00 19 1004.7
20180813222639 30 329 0.0 0.0 0.00 0.00 0.00 21 1004.5
20180813221137 31 327 0.0 0.0 0.00 0.00 0.00 20 1004.6
20180813215636 31 327 0.0 0.0 0.00 0.00 0.00 22 1004.7
20180813214136 30 327 0.0 0.0 0.00 0.00 0.00 22 1004.9